Location: Unspecified
(49.2170°N, 0.0000°E)
Time: 06:25:30
(UTC+00:00)

Transit 2A - Pass Details

Date: 17 June 2019
Orbit: 594 x 965 km, 66.7° (Epoch: 15 July)

Event Time Altitude Azimuth Distance (km) Brightness Sun altitude
Rises 10:15:15 0° 322° (NW) 3,501 9.1 56.9°
Reaches altitude 10° 10:17:52 10° 320° (NW) 2,506 8.5 57.2°
Maximum altitude 10:23:35 64° 240° (WSW) 881 7.2 57.9°
Drops below altitude 10° 10:28:40 10° 160° (SSE) 2,241 9.1 58.4°
Sets 10:30:55 0° 157° (SSE) 3,103 9.6 58.7°
